Hondo, TX

5:13 PM CDT on April 21, 2018 (GMT -0500)
Hondo Municipal

Weather History for KHDO - April, 2014

Change the Weather History Date:

Friday, April 18, 2014

  Actual Average Record
Temperature  
Mean Temperature 72 °F -  
Max Temperature 82 °F 78 °F 99 °F (2006)
Min Temperature 63 °F 56 °F 41 °F (1999)
Cooling Degree Days 8    
Growing Degree Days 22 (Base 50)    
Moisture  
Dew Point 57 °F    
Average Humidity 66    
Maximum Humidity 87    
Minimum Humidity 34    
Precipitation  
Precipitation 0.00 in - - ()
Sea Level Pressure  
Sea Level Pressure 30.14 in    
Wind  
Wind Speed 7 mph (East)    
Max Wind Speed 12 mph    
Max Gust Speed -    
Visibility 10 miles    
Events      
Averages and records for this station are not official NWS values.
T = Trace of Precipitation, MM = Missing Value Source: NWS Daily Summary

Daily Weather History Graph

Daily Weather History Graph

Search for Another Location

Airport or City:

Astronomy

Apr. 18, 2014 Rise Set
Actual Time 7:07 AM CDT 8:05 PM CDT
Civil Twilight 6:42 AM CDT 8:29 PM CDT
Nautical Twilight 6:13 AM CDT 8:58 PM CDT
Astronomical Twilight 5:44 AM CDT 9:28 PM CDT
Moon 11:41 PM CDT (4/18) 9:40 AM CDT (4/18)
Length of Visible Light 13h 46m
Length of Day
12h 57m
Waning Gibbous, 87% of the Moon is Illuminated
Apr 18
Waning Gibbous
Apr 22
Last Quarter
Apr 29
New
May 6
First Quarter
May 14
Full

Hourly Weather History & Observations

Time (CDT) Temp. Heat Index Dew Point Humidity Pressure Visibility Wind Dir Wind Speed Gust Speed Precip Events Conditions
12:23 AM 66.0 °F - 59.0 °F 78% 30.18 in 10.0 mi East 8.1 mph - N/A   Overcast
12:51 AM 66.0 °F - 59.0 °F 78% 30.16 in 10.0 mi East 9.2 mph - N/A   Overcast
1:15 AM 66.0 °F - 59.0 °F 78% 30.19 in 10.0 mi East 9.2 mph - N/A   Overcast
1:51 AM 64.9 °F - 59.0 °F 81% 30.16 in 10.0 mi East 6.9 mph - N/A   Overcast
2:06 AM 64.9 °F - 59.0 °F 81% 30.19 in 10.0 mi East 6.9 mph - N/A   Overcast
2:13 AM 64.9 °F - 59.0 °F 81% 30.19 in 10.0 mi East 4.6 mph - N/A   Overcast
2:51 AM 64.9 °F - 59.0 °F 81% 30.14 in 10.0 mi East 6.9 mph - N/A   Overcast
3:23 AM 64.9 °F - 59.0 °F 81% 30.17 in 10.0 mi East 6.9 mph - N/A   Overcast
3:51 AM 64.9 °F - 59.0 °F 81% 30.13 in 10.0 mi East 5.8 mph - N/A   Overcast
4:38 AM 64.0 °F - 59.0 °F 84% 30.17 in 10.0 mi East 4.6 mph - N/A   Overcast
4:51 AM 64.0 °F - 59.0 °F 84% 30.13 in 10.0 mi ENE 5.8 mph - N/A   Overcast
5:28 AM 64.0 °F - 59.0 °F 84% 30.17 in 9.0 mi ENE 5.8 mph - N/A   Overcast
5:51 AM 63.0 °F - 59.0 °F 87% 30.14 in 9.0 mi ENE 4.6 mph - N/A   Overcast
6:22 AM 64.0 °F - 59.0 °F 84% 30.18 in 9.0 mi ENE 3.5 mph - N/A   Overcast
6:42 AM 63.0 °F - 57.9 °F 84% 30.18 in 9.0 mi NE 4.6 mph - N/A   Overcast
6:51 AM 63.0 °F - 57.9 °F 84% 30.15 in 9.0 mi NE 4.6 mph - N/A   Overcast
7:51 AM 63.0 °F - 57.9 °F 84% 30.17 in 7.0 mi NE 3.5 mph - N/A   Mostly Cloudy
8:51 AM 66.0 °F - 59.0 °F 78% 30.18 in 10.0 mi ENE 4.6 mph - N/A   Partly Cloudy
9:51 AM 71.6 °F - 57.2 °F 60% 30.21 in 10.0 mi NE 4.6 mph - N/A   Clear
10:51 AM 73.0 °F - 55.9 °F 55% 30.19 in 10.0 mi ENE 4.6 mph - N/A   Partly Cloudy
11:51 AM 75.0 °F - 55.9 °F 51% 30.18 in 10.0 mi ESE 8.1 mph - N/A   Mostly Cloudy
12:51 PM 77.0 °F - 55.0 °F 47% 30.17 in 10.0 mi SSE 4.6 mph - N/A   Clear
1:51 PM 80.1 °F 80.0 °F 54.0 °F 40% 30.14 in 10.0 mi ESE 9.2 mph - N/A   Mostly Cloudy
2:51 PM 81.0 °F 80.5 °F 54.0 °F 39% 30.12 in 10.0 mi SSE 10.4 mph - N/A   Scattered Clouds
3:51 PM 81.0 °F - 52.0 °F 36% 30.09 in 10.0 mi SE 11.5 mph - N/A   Mostly Cloudy
4:51 PM 82.9 °F - 52.0 °F 34% 30.07 in 10.0 mi SSE 9.2 mph - N/A   Clear
5:51 PM 81.0 °F - 51.1 °F 35% 30.06 in 10.0 mi SE 10.4 mph - N/A   Clear
6:51 PM 79.0 °F - 53.1 °F 40% 30.05 in 10.0 mi ESE 11.5 mph - N/A   Clear
7:51 PM 77.0 °F - 53.1 °F 43% 30.05 in 10.0 mi SSE 9.2 mph - N/A   Clear
8:51 PM 72.0 °F - 54.0 °F 53% 30.08 in 10.0 mi SE 5.8 mph - N/A   Clear
9:51 PM 71.6 °F - 53.6 °F 53% 30.13 in 10.0 mi ESE 9.2 mph - N/A   Clear
10:51 PM 69.8 °F - 55.4 °F 60% 30.14 in 10.0 mi ESE 10.4 mph - N/A   Clear
11:51 PM 69.1 °F - 55.9 °F 63% 30.12 in 10.0 mi ESE 11.5 mph - N/A   Clear